Tracking 31027 objects as of 19-Jul-2025
HD Live streaming from Space Station
objects crossing your sky now

STARLINK-30333

Track STARLINK-30333 now!
10-day predictions
STARLINK-30333 is classified as:


NORAD ID: 57702
Int'l Code: 2023-129E
Perigee: 565.1 km
Apogee: 567.2 km
Inclination: 43.0 °
Period: 95.8 minutes
Semi major axis: 6937 km
RCS: Unknown
Launch date: August 27, 2023
Source: United States (US)
Launch site: AIR FORCE EASTERN TEST RANGE (AFETR)
Your satellite tracking list
ICEYE-X27
Track 1 satellite(s)




NASA's NSSDC Master Catalog

Two Line Element Set (TLE):
1 57702U 23129E   25199.30783654 -.00001664  00000-0 -10809-3 0  9990
2 57702  43.0040 314.1703 0001503 285.6301  74.4376 15.02545199105397
Source of the keplerian elements: AFSPC